sat.trackr.live / text

‹ back to catalog

STARLINK-31871

NORAD 59673 · 2024-084V

PAYLOAD ACTIVE UNKNOWN

§ Identity

Operator
Country
US
Launch date
2024-05-06
Launch site
AFETR
Launch vehicle
Mass (kg)
RCS (m²)

Purposes: comms

External: N2YO · Heavens-Above · Gunter

§ Orbital elements

Epoch: 2026-05-24T22:14:57.412896Z

Period
94.27 min
Inclination
43.0008°
Eccentricity
0.0001951
Mean motion
15.27580158 rev/d
Perigee alt
481.7 km
Apogee alt
484.4 km
Semi-major
6,861.2 km
B*
8.2412e-5
RAAN
331.1573°
Arg perigee
264.3820°
Mean anomaly
95.6810°
Rev number
11,603

§ Raw data

STARLINK-318711 59673U 24084V   26144.92705339  .00002006  00000+0  82412-4 0  99912 59673  43.0008 331.1573 0001951 264.3820  95.6810 15.27580158116033

JSON: /api/v1/satellites/59673 · /tle

For live sub-satellite position, see the globe view (requires WebGL).

§ Visibility from observer

Set your observer location to see the next 7 days of passes ≥ 10°. The values pass through the URL so the page stays shareable.

No JS? Fill the form by hand. The geolocation button needs JavaScript.